Lawton, OK

12:23 AM CDT on March 23, 2017 (GMT -0500)
Lawton-Fort Sill Regional

Weather History for KLAW - May, 2013

Change the Weather History Date:

Friday, May 17, 2013

  Actual Average Record
Temperature  
Mean Temperature 78 °F -  
Max Temperature 89 °F 84 °F 99 °F (1966)
Min Temperature 66 °F 59 °F 46 °F (1983)
Cooling Degree Days 12    
Growing Degree Days 28 (Base 50)    
Moisture  
Dew Point 67 °F    
Average Humidity 87    
Maximum Humidity 100    
Minimum Humidity 57    
Precipitation  
Precipitation 0.00 in - - ()
Sea Level Pressure  
Sea Level Pressure 29.80 in    
Wind  
Wind Speed 9 mph (East)    
Max Wind Speed 15 mph    
Max Gust Speed 24 mph    
Visibility 4 miles    
Events      
Averages and records for this station are not official NWS values.
T = Trace of Precipitation, MM = Missing Value Source: NWS Daily Summary

Daily Weather History Graph

Daily Weather History Graph

Search for Another Location

Airport or City:

Trip Planner

Search our weather history database for the weather conditions in past years. The results will help you decide how hot, cold, wet, or windy it might be!

Date:

Astronomy

May. 17, 2013 Rise Set
Actual Time 6:29 AM CDT 8:31 PM CDT
Civil Twilight 6:01 AM CDT 8:59 PM CDT
Nautical Twilight 5:27 AM CDT 9:33 PM CDT
Astronomical Twilight 4:50 AM CDT 10:10 PM CDT
Moon 12:56 PM CDT (5/17) 1:30 AM CDT (5/17)
Length of Visible Light 14h 57m
Length of Day
14h 01m
Waxing Crescent, 45% of the Moon is Illuminated
May 17
Waxing Crescent
May 17
First Quarter
May 24
Full
May 31
Last Quarter
Jun 8
New

Hourly Weather History & Observations

Time (CDT) Temp. Heat Index Dew Point Humidity Pressure Visibility Wind Dir Wind Speed Gust Speed Precip Events Conditions
12:07 AM 66.2 °F - 64.4 °F 94% 29.82 in 8.0 mi East 8.1 mph - N/A   Overcast
12:16 AM 66.2 °F - 64.4 °F 94% 29.82 in 8.0 mi East 5.8 mph - N/A   Overcast
12:53 AM 66.9 °F - 64.0 °F 90% 29.79 in 8.0 mi ESE 9.2 mph - N/A   Overcast
1:44 AM 66.2 °F - 64.4 °F 94% 29.81 in 5.0 mi ESE 9.2 mph - N/A   Overcast
1:53 AM 66.0 °F - 64.9 °F 96% 29.79 in 4.0 mi ESE 8.1 mph - N/A   Overcast
2:13 AM 66.2 °F - 64.4 °F 94% 29.81 in 2.0 mi East 6.9 mph - N/A   Overcast
2:20 AM 66.2 °F - 64.4 °F 94% 29.81 in 1.5 mi East 6.9 mph - N/A   Overcast
2:53 AM 66.0 °F - 64.9 °F 96% 29.79 in 1.0 mi ESE 9.2 mph - N/A   Overcast
3:23 AM 66.2 °F - 64.4 °F 94% 29.81 in 2.0 mi East 8.1 mph - N/A   Overcast
3:53 AM 66.0 °F - 64.9 °F 96% 29.80 in 1.8 mi ENE 10.4 mph - N/A   Overcast
4:35 AM 66.2 °F - 64.4 °F 94% 29.84 in 2.0 mi ENE 8.1 mph - N/A   Overcast
4:49 AM 66.2 °F - 64.4 °F 94% 29.83 in 3.0 mi ENE 6.9 mph - N/A   Overcast
4:53 AM 66.0 °F - 64.9 °F 96% 29.81 in 3.0 mi ENE 8.1 mph - N/A   Overcast
5:06 AM 66.2 °F - 64.4 °F 94% 29.83 in 2.5 mi ENE 11.5 mph - N/A   Overcast
5:29 AM 66.2 °F - 64.4 °F 94% 29.82 in 1.8 mi ENE 11.5 mph - N/A   Overcast
5:53 AM 66.0 °F - 64.9 °F 96% 29.79 in 1.8 mi East 9.2 mph - N/A   Overcast
6:53 AM 66.0 °F - 64.9 °F 96% 29.79 in 1.5 mi ESE 6.9 mph - N/A   Overcast
7:18 AM 66.2 °F - 66.2 °F 100% 29.82 in 2.0 mi ESE 6.9 mph - N/A   Overcast
7:45 AM 66.2 °F - 66.2 °F 100% 29.81 in 1.2 mi ESE 10.4 mph - N/A   Overcast
7:53 AM 66.9 °F - 66.0 °F 97% 29.80 in 1.0 mi ESE 8.1 mph - N/A   Overcast
8:53 AM 68.0 °F - 66.9 °F 96% 29.81 in 1.5 mi ESE 9.2 mph - N/A   Overcast
9:17 AM 68.0 °F - 66.2 °F 94% 29.83 in 2.5 mi East 6.9 mph - N/A   Overcast
9:28 AM 68.0 °F - 66.2 °F 94% 29.84 in 3.0 mi East 9.2 mph - N/A   Overcast
9:53 AM 69.1 °F - 68.0 °F 96% 29.82 in 4.0 mi East 8.1 mph - N/A   Overcast
10:53 AM 70.0 °F - 68.0 °F 93% 29.83 in 2.5 mi East 8.1 mph - N/A   Overcast
11:39 AM 71.6 °F - 69.8 °F 94% 29.85 in 3.0 mi East 8.1 mph - N/A   Overcast
11:53 AM 73.0 °F - 70.0 °F 90% 29.83 in 5.0 mi East 10.4 mph - N/A   Overcast
12:18 PM 73.4 °F - 69.8 °F 88% 29.85 in 6.0 mi East 9.2 mph - N/A   Overcast
12:53 PM 73.9 °F - 69.1 °F 85% 29.82 in 6.0 mi East 11.5 mph - N/A   Haze
1:21 PM 78.8 °F - 71.6 °F 78% 29.84 in 8.0 mi East 8.1 mph - N/A   Overcast
2:53 PM 84.0 °F 89.0 °F 71.1 °F 65% 29.78 in 8.0 mi East 11.5 mph - N/A   Mostly Cloudy
3:05 PM 87.8 °F 93.8 °F 71.6 °F 58% 29.81 in 8.0 mi East 11.5 mph - N/A   Scattered Clouds
3:53 PM 88.0 °F 94.7 °F 72.0 °F 59% 29.76 in 8.0 mi East 12.7 mph 19.6 mph N/A   Mostly Cloudy
4:53 PM 89.1 °F 96.0 °F 72.0 °F 57% 29.74 in 8.0 mi East 15.0 mph 20.7 mph N/A   Partly Cloudy
5:53 PM 88.0 °F 94.7 °F 72.0 °F 59% 29.72 in 8.0 mi East 15.0 mph 24.2 mph N/A   Clear
6:53 PM 86.0 °F 91.5 °F 71.1 °F 61% 29.74 in 8.0 mi ESE 13.8 mph - N/A   Partly Cloudy
7:53 PM 82.9 °F 87.5 °F 71.1 °F 67% 29.75 in 7.0 mi ESE 11.5 mph - N/A   Clear
8:53 PM 80.1 °F 83.6 °F 71.1 °F 74% 29.77 in 8.0 mi ESE 11.5 mph - N/A   Clear
9:53 PM 77.0 °F - 70.0 °F 79% 29.78 in 7.0 mi East 8.1 mph - N/A   Clear
10:53 PM 75.9 °F - 71.1 °F 85% 29.78 in 7.0 mi East 8.1 mph - N/A   Clear
11:53 PM 73.9 °F - 71.1 °F 91% 29.78 in 5.0 mi ESE 8.1 mph - N/A   Clear